This is the latest recevied weather packets stored in our database for station/object N6WDO. If no packets are shown the sender has not sent any weather packets the latest 10 day(s).
| Time | Temp. | Humidity | Pressure | Rain* | Wind** | Luminosity | Snow |
|---|---|---|---|---|---|---|---|
| 1778076957 | 9.44° C | 98% | 1021.5 hPa | 0 mm | - | 64 W/m² | - |
| 1778076656 | 9.44° C | 99% | 1021.7 hPa | 0 mm | - | 49 W/m² | - |
| 1778076353 | 8.89° C | 99% | 1021.5 hPa | 0 mm | - | 52 W/m² | - |
| 1778076050 | 7.78° C | 99% | 1021.5 hPa | 0 mm | - | 36 W/m² | - |
| 1778075747 | 7.78° C | 99% | 1021.3 hPa | 0 mm | - | 28 W/m² | - |
| 1778075443 | 7.78° C | 99% | 1021.4 hPa | 0 mm | - | 24 W/m² | - |
| 1778075140 | 7.78° C | 99% | 1021.2 hPa | 0 mm | - | 22 W/m² | - |
| 1778074835 | 7.78° C | 99% | 1021.2 hPa | 0 mm | - | 21 W/m² | - |
| 1778074533 | 6.67° C | 99% | 1021.4 hPa | 0 mm | - | 23 W/m² | - |
| 1778074230 | 6.11° C | 99% | 1021.5 hPa | 0 mm | - | 16 W/m² | - |
| 1778073927 | 6.11° C | 99% | 1021 hPa | 0 mm | - | 14 W/m² | - |
| 1778073624 | 6.11° C | 99% | 1020.9 hPa | 0 mm | - | 11 W/m² | - |
| 1778073321 | 6.11° C | 99% | 1021.1 hPa | 0 mm | - | 9 W/m² | - |
| 1778073018 | 6.11° C | 99% | 1020.8 hPa | 0 mm | - | 7 W/m² | - |
| 1778072714 | 6.11° C | 99% | 1021 hPa | 0 mm | - | 5 W/m² | - |
| 1778072412 | 6.11° C | 99% | 1020.9 hPa | 0 mm | - | 3 W/m² | - |
| 1778072110 | 6.67° C | 99% | 1020.8 hPa | 0 mm | - | 2 W/m² | - |
| 1778071808 | 6.67° C | 99% | 1020.6 hPa | 0 mm | - | 1 W/m² | - |
| 1778071505 | 6.67° C | 99% | 1020.7 hPa | 0 mm | - | 0 W/m² | - |
| 1778071203 | 6.67° C | 99% | 1020.6 hPa | 0 mm | - | 0 W/m² | - |
| 1778070901 | 6.11° C | 99% | 1020.6 hPa | 0 mm | - | 0 W/m² | - |
| 1778070598 | 6.11° C | 99% | 1020.5 hPa | 0 mm | - | 0 W/m² | - |
| 1778070295 | 6.67° C | 99% | 1020.6 hPa | 0 mm | - | 0 W/m² | - |
| 1778069993 | 6.67° C | 99% | 1020.4 hPa | 0 mm | - | 0 W/m² | - |
| 1778069690 | 6.67° C | 99% | 1020.4 hPa | 0 mm | - | 0 W/m² | - |
* Rain latest hour (hover to see other rain measurements)
** Current wind speed in m/s (hover to see current wind gust speed)